Date String (YYYY-MM-DD hh:mm:ss) UTC,Instrument flags,Ambient pressure (hPa),Sample flow (lpm),Bypass flow (lpm),Sample temperature (°C),Ambient temperature (°C),ASC tube jacket temperature (°C),LED temperature (°C),Box temperature (°C),Sample RH (%),Span deviation,Mass concentration (μg/m³),Mass concentration (μg/m³),Mass concentration (μg/m³)
DateTimeUTC,F1_M11,P_M11,Q1_M11,Q2_M11,T1_M11,T2_M11,T3_M11,T4_M11,T5_M11,U1_M11,ZSPAN_M11,X0_M11,X2_M11,X1_M11
2022-03-30 12:00:00,,0818.8,4.98,0.00,22.0,21.6,00.0,30.9,23.8,15.1,0000.0,0005.30,0003.93,0003.71
2022-03-30 12:01:00,,0818.7,5.00,0.00,22.0,21.5,00.0,30.9,23.8,15.1,0000.0,0005.30,0003.93,0003.72
2022-03-30 12:02:00,,0818.8,5.00,0.00,22.0,21.4,00.0,30.9,23.8,15.1,0000.0,0005.30,0003.94,0003.73
2022-03-30 12:03:00,,0818.8,5.00,0.00,22.0,21.2,00.0,30.9,23.7,15.2,0000.0,0005.29,0003.95,0003.74
2022-03-30 12:04:00,,0818.8,5.00,0.00,21.9,21.0,00.0,30.9,23.7,15.2,0000.0,0005.24,0003.94,0003.74
2022-03-30 12:05:00,,0818.8,5.00,0.00,21.9,20.9,00.0,30.9,23.6,15.2,0000.0,0005.21,0003.94,0003.75
2022-03-30 12:06:00,,0818.8,5.00,0.00,21.9,20.8,00.0,30.9,23.6,15.3,0000.0,0005.34,0003.95,0003.76
2022-03-30 12:07:00,,0818.8,5.01,0.00,21.9,20.8,00.0,30.9,23.6,15.3,0000.0,0005.35,0003.96,0003.77
2022-03-30 12:08:00,,0818.8,5.01,0.00,21.8,20.7,00.0,30.9,23.6,15.3,0000.0,0005.42,0003.96,0003.78
2022-03-30 12:09:00,,0818.8,5.00,0.00,21.8,20.7,00.0,30.9,23.5,15.3,0000.0,0005.35,0003.95,0003.78
2022-03-30 12:10:00,,0818.8,4.99,0.00,21.8,20.6,00.0,30.9,23.5,15.4,0000.0,0005.30,0003.95,0003.78
2022-03-30 12:11:00,,0818.8,5.00,0.00,21.8,20.6,00.0,30.8,23.5,15.4,0000.0,0005.27,0003.94,0003.78
2022-03-30 12:12:00,,0818.8,5.00,0.00,21.7,20.6,00.0,30.8,23.4,15.4,0000.0,0005.36,0003.96,0003.79
2022-03-30 12:13:00,,0818.8,5.00,0.00,21.7,20.6,00.0,30.8,23.4,15.4,0000.0,0005.40,0003.96,0003.79
2022-03-30 12:14:00,,0818.8,5.00,0.00,21.7,20.6,00.0,30.8,23.4,15.4,0000.0,0005.50,0003.97,0003.79
2022-03-30 12:15:00,,0818.8,5.00,0.00,21.7,20.5,00.0,30.8,23.4,15.5,0000.0,0006.18,0003.99,0003.79
2022-03-30 12:16:00,,0818.8,5.00,0.00,21.6,20.5,00.0,30.8,23.3,15.5,0000.0,0006.76,0003.99,0003.79
2022-03-30 12:17:00,,0818.8,5.00,0.00,21.6,20.4,00.0,30.7,23.3,15.5,0000.0,0006.55,0003.98,0003.78
2022-03-30 12:18:00,,0818.8,5.00,0.00,21.6,20.5,00.0,30.7,23.3,15.5,0000.0,0006.59,0003.98,0003.76
2022-03-30 12:19:00,,0818.8,5.01,0.00,21.6,20.6,00.0,30.7,23.3,15.4,0000.0,0006.75,0003.96,0003.76
2022-03-30 12:20:00,,0818.8,5.00,0.00,21.6,20.5,00.0,30.7,23.3,15.4,0000.0,0007.10,0003.95,0003.75
2022-03-30 12:21:00,,0818.8,5.00,0.00,21.6,20.6,00.0,30.7,23.3,15.4,0000.0,0007.55,0003.94,0003.74
2022-03-30 12:22:00,,0818.8,5.00,0.00,21.6,20.6,00.0,30.7,23.3,15.4,0000.0,0007.69,0003.95,0003.74
2022-03-30 12:23:00,,0818.8,5.00,0.00,21.6,20.5,00.0,30.7,23.3,15.4,0000.0,0007.75,0003.93,0003.74
2022-03-30 12:24:00,,0818.9,5.00,0.00,21.6,20.4,00.0,30.7,23.3,15.4,0000.0,0007.71,0003.93,0003.74
2022-03-30 12:25:00,,0818.9,5.00,0.00,21.6,20.4,00.0,30.6,23.3,15.4,0000.0,0007.68,0003.92,0003.74
2022-03-30 12:26:00,,0818.9,5.00,0.00,21.5,20.4,00.0,30.6,23.3,15.4,0000.0,0007.26,0003.91,0003.74
2022-03-30 12:27:00,,0818.9,4.99,0.00,21.5,20.4,00.0,30.6,23.2,15.4,0000.0,0006.80,0003.91,0003.74
2022-03-30 12:28:00,,0818.9,4.99,0.00,21.5,20.4,00.0,30.6,23.2,15.4,0000.0,0006.80,0003.92,0003.74
2022-03-30 12:29:00,,0818.9,5.00,0.00,21.5,20.3,00.0,30.6,23.2,15.4,0000.0,0006.83,0003.92,0003.74
2022-03-30 12:30:00,,0819.0,5.00,0.00,21.5,20.3,00.0,30.6,23.2,15.4,0000.0,0006.56,0003.93,0003.74
2022-03-30 12:31:00,,0819.0,5.00,0.00,21.4,20.2,00.0,30.5,23.1,15.4,0000.0,0006.19,0003.94,0003.74
2022-03-30 12:32:00,,0819.0,5.00,0.00,21.4,20.2,00.0,30.5,23.1,15.4,0000.0,0005.46,0003.93,0003.75
2022-03-30 12:33:00,,0819.0,5.00,0.00,21.4,20.2,00.0,30.5,23.0,15.4,0000.0,0005.22,0003.92,0003.74
2022-03-30 12:34:00,,0818.9,5.00,0.00,21.4,20.3,00.0,30.5,23.1,15.4,0000.0,0005.13,0003.93,0003.74
2022-03-30 12:35:00,,0819.0,5.00,0.00,21.4,20.3,00.0,30.5,23.1,15.4,0000.0,0005.15,0003.93,0003.74
2022-03-30 12:36:00,,0819.0,5.01,0.00,21.4,20.4,00.0,30.5,23.1,15.4,0000.0,0005.23,0003.94,0003.74
2022-03-30 12:37:00,,0819.0,5.00,0.00,21.4,20.4,00.0,30.5,23.1,15.3,0000.0,0005.21,0003.93,0003.74
2022-03-30 12:38:00,,0819.0,5.00,0.00,21.4,20.5,00.0,30.5,23.1,15.3,0000.0,0005.22,0003.94,0003.75
2022-03-30 12:39:00,,0819.0,4.99,0.00,21.4,21.0,00.0,30.5,23.2,15.3,0000.0,0005.27,0003.94,0003.75
2022-03-30 12:40:00,,0819.0,5.00,0.00,21.5,21.9,00.0,30.5,23.4,15.2,0000.0,0005.45,0003.96,0003.75
2022-03-30 12:41:00,,0819.0,5.01,0.00,21.7,22.6,00.0,30.6,23.7,15.1,0000.0,0005.53,0003.98,0003.75
2022-03-30 12:42:00,,0819.0,4.99,0.00,21.8,22.3,00.0,30.6,23.8,15.0,0000.0,0005.91,0003.98,0003.76
2022-03-30 12:43:00,,0819.0,4.99,0.00,21.8,21.9,00.0,30.6,23.7,14.9,0000.0,0006.24,0003.98,0003.76
2022-03-30 12:44:00,,0819.0,5.02,0.00,21.8,21.6,00.0,30.6,23.6,14.9,0000.0,0006.26,0003.98,0003.77
2022-03-30 12:45:00,,0819.0,4.98,0.00,21.7,21.3,00.0,30.6,23.5,14.9,0000.0,0006.19,0003.98,0003.76
2022-03-30 12:46:00,,0819.0,5.00,0.00,21.7,21.1,00.0,30.6,23.5,14.9,0000.0,0006.20,0003.99,0003.77
2022-03-30 12:47:00,,0819.0,5.00,0.00,21.7,20.9,00.0,30.6,23.5,14.9,0000.0,0006.25,0003.98,0003.77
2022-03-30 12:48:00,,0819.0,5.00,0.00,21.7,20.8,00.0,30.6,23.4,14.9,0000.0,0006.31,0003.99,0003.77
2022-03-30 12:49:00,,0819.0,5.00,0.00,21.6,20.7,00.0,30.6,23.4,15.0,0000.0,0006.34,0004.00,0003.78
2022-03-30 12:50:00,,0819.0,5.00,0.00,21.6,20.7,00.0,30.6,23.3,15.0,0000.0,0006.43,0004.02,0003.79
2022-03-30 12:51:00,,0819.0,5.00,0.00,21.6,20.7,00.0,30.6,23.3,14.9,0000.0,0006.38,0004.03,0003.81
2022-03-30 12:52:00,,0819.0,5.00,0.00,21.6,20.7,00.0,30.6,23.3,14.9,0000.0,0006.28,0004.01,0003.81
2022-03-30 12:53:00,,0819.1,5.00,0.00,21.6,20.6,00.0,30.6,23.3,14.9,0000.0,0006.22,0004.02,0003.82
2022-03-30 12:54:00,,0819.0,5.00,0.00,21.6,20.5,00.0,30.6,23.2,14.8,0000.0,0005.68,0004.02,0003.84
2022-03-30 12:55:00,,0819.0,5.01,0.00,21.5,20.4,00.0,30.6,23.2,14.8,0000.0,0005.88,0004.05,0003.84
2022-03-30 12:56:00,,0819.1,4.99,0.00,21.5,20.3,00.0,30.6,23.1,14.7,0000.0,0005.87,0004.04,0003.85
2022-03-30 12:57:00,,0819.1,5.00,0.00,21.4,20.4,00.0,30.6,23.0,14.7,0000.0,0005.86,0004.04,0003.85
2022-03-30 12:58:00,,0819.1,5.01,0.00,21.4,20.4,00.0,30.5,23.0,14.7,0000.0,0005.72,0004.03,0003.85
2022-03-30 12:59:00,,0819.1,5.00,0.00,21.4,20.3,00.0,30.5,23.0,14.7,0000.0,0005.63,0004.04,0003.85
